Date_Time,Julian_Date,Latitude,Longitude,Instrument_Depth,U,V,Speed,Direction
(yyyy-mm-dd hh:mn:ss UTC),(JD),(+ deg. North),(+ deg. East),(m),(cm/s),(cm/s),(cm/s),(deg True)
1982-09-15 18:00:00 UTC,2445228.250000,28.7317,-95.2428,0201,-7.31,6.82,10.0000,313.0000
1982-09-15 18:30:00 UTC,2445228.270833,28.7317,-95.2428,0201,-6.79,5.90,9.0000,311.0000
1982-09-15 19:00:00 UTC,2445228.291667,28.7317,-95.2428,0201,-5.28,4.59,7.0000,311.0000
1982-09-15 19:30:00 UTC,2445228.312500,28.7317,-95.2428,0201,-5.73,4.02,7.0000,305.0000
1982-09-15 20:00:00 UTC,2445228.333333,28.7317,-95.2428,0201,-6.24,3.18,7.0000,297.0000
1982-09-15 20:30:00 UTC,2445228.354167,28.7317,-95.2428,0201,-5.74,1.75,6.0000,287.0000
1982-09-15 21:00:00 UTC,2445228.375000,28.7317,-95.2428,0201,-5.89,1.14,6.0000,281.0000
1982-09-15 21:30:00 UTC,2445228.395833,28.7317,-95.2428,0201,-5.94,0.84,6.0000,278.0000
1982-09-15 22:00:00 UTC,2445228.416667,28.7317,-95.2428,0201,-6.00,-0.10,6.0000,269.0000
1982-09-15 22:30:00 UTC,2445228.437500,28.7317,-95.2428,0201,-6.87,-1.34,7.0000,259.0000
1982-09-15 23:00:00 UTC,2445228.458333,28.7317,-95.2428,0201,-6.69,-2.05,7.0000,253.0000
1982-09-15 23:30:00 UTC,2445228.479167,28.7317,-95.2428,0201,-6.34,-2.96,7.0000,245.0000
1982-09-16 00:00:00 UTC,2445228.500000,28.7317,-95.2428,0201,-4.05,-2.94,5.0000,234.0000
1982-09-16 00:30:00 UTC,2445228.520833,28.7317,-95.2428,0201,-4.15,-2.80,5.0000,236.0000
1982-09-16 01:00:00 UTC,2445228.541667,28.7317,-95.2428,0201,-4.57,-2.03,5.0000,246.0000
1982-09-16 01:30:00 UTC,2445228.562500,28.7317,-95.2428,0201,-4.87,-1.12,5.0000,257.0000
1982-09-16 02:00:00 UTC,2445228.583333,28.7317,-95.2428,0201,-4.00,0.07,4.0000,271.0000
1982-09-16 02:30:00 UTC,2445228.604167,28.7317,-95.2428,0201,-3.73,1.43,4.0000,291.0000
1982-09-16 03:00:00 UTC,2445228.625000,28.7317,-95.2428,0201,-2.97,2.68,4.0000,312.0000
1982-09-16 03:30:00 UTC,2445228.645833,28.7317,-95.2428,0201,-2.42,4.37,5.0000,331.0000
1982-09-16 04:00:00 UTC,2445228.666667,28.7317,-95.2428,0201,-1.25,5.87,6.0000,348.0000
1982-09-16 04:30:00 UTC,2445228.687500,28.7317,-95.2428,0201,-0.12,7.00,7.0000,359.0000
1982-09-16 05:00:00 UTC,2445228.708333,28.7317,-95.2428,0201,0.70,7.97,8.0000,5.0000
1982-09-16 05:30:00 UTC,2445228.729167,28.7317,-95.2428,0201,1.56,8.86,9.0000,10.0000
1982-09-16 06:00:00 UTC,2445228.750000,28.7317,-95.2428,0201,2.78,8.56,9.0000,18.0000
1982-09-16 06:30:00 UTC,2445228.770833,28.7317,-95.2428,0201,3.13,7.36,8.0000,23.0000
1982-09-16 07:00:00 UTC,2445228.791667,28.7317,-95.2428,0201,3.07,6.29,7.0000,26.0000
1982-09-16 07:30:00 UTC,2445228.812500,28.7317,-95.2428,0201,3.71,5.94,7.0000,32.0000
1982-09-16 08:00:00 UTC,2445228.833333,28.7317,-95.2428,0201,3.53,4.85,6.0000,36.0000
1982-09-16 08:30:00 UTC,2445228.854167,28.7317,-95.2428,0201,3.44,4.91,6.0000,35.0000
1982-09-16 09:00:00 UTC,2445228.875000,28.7317,-95.2428,0201,3.69,4.73,6.0000,38.0000
1982-09-16 09:30:00 UTC,2445228.895833,28.7317,-95.2428,0201,3.35,3.72,5.0000,42.0000
1982-09-16 10:00:00 UTC,2445228.916667,28.7317,-95.2428,0201,3.35,3.72,5.0000,42.0000
1982-09-16 10:30:00 UTC,2445228.937500,28.7317,-95.2428,0201,3.77,3.28,5.0000,49.0000
1982-09-16 11:00:00 UTC,2445228.958333,28.7317,-95.2428,0201,3.32,2.24,4.0000,56.0000
1982-09-16 11:30:00 UTC,2445228.979167,28.7317,-95.2428,0201,3.46,2.00,4.0000,60.0000
1982-09-16 12:00:00 UTC,2445229.000000,28.7317,-95.2428,0201,3.71,1.50,4.0000,68.0000
1982-09-16 12:30:00 UTC,2445229.020833,28.7317,-95.2428,0201,4.73,1.63,5.0000,71.0000
1982-09-16 13:00:00 UTC,2445229.041667,28.7317,-95.2428,0201,5.44,2.54,6.0000,65.0000
1982-09-16 13:30:00 UTC,2445229.062500,28.7317,-95.2428,0201,5.30,2.82,6.0000,62.0000
1982-09-16 14:00:00 UTC,2445229.083333,28.7317,-95.2428,0201,5.94,3.71,7.0000,58.0000
1982-09-16 14:30:00 UTC,2445229.104167,28.7317,-95.2428,0201,5.95,5.35,8.0000,48.0000
1982-09-16 15:00:00 UTC,2445229.125000,28.7317,-95.2428,0201,6.82,7.31,10.0000,43.0000
1982-09-16 15:30:00 UTC,2445229.145833,28.7317,-95.2428,0201,7.87,9.06,12.0000,41.0000
1982-09-16 16:00:00 UTC,2445229.166667,28.7317,-95.2428,0201,8.43,11.18,14.0000,37.0000
1982-09-16 16:30:00 UTC,2445229.187500,28.7317,-95.2428,0201,8.39,12.44,15.0000,34.0000
1982-09-16 17:00:00 UTC,2445229.208333,28.7317,-95.2428,0201,8.95,13.26,16.0000,34.0000
1982-09-16 17:30:00 UTC,2445229.229167,28.7317,-95.2428,0201,9.75,13.93,17.0000,35.0000
1982-09-16 18:00:00 UTC,2445229.250000,28.7317,-95.2428,0201,11.08,14.18,18.0000,38.0000
1982-09-16 18:30:00 UTC,2445229.270833,28.7317,-95.2428,0201,11.57,13.79,18.0000,40.0000
1982-09-16 19:00:00 UTC,2445229.291667,28.7317,-95.2428,0201,11.81,13.58,18.0000,41.0000
1982-09-16 19:30:00 UTC,2445229.312500,28.7317,-95.2428,0201,10.93,13.02,17.0000,40.0000
1982-09-16 20:00:00 UTC,2445229.333333,28.7317,-95.2428,0201,9.85,12.61,16.0000,38.0000
1982-09-16 20:30:00 UTC,2445229.354167,28.7317,-95.2428,0201,8.81,10.88,14.0000,39.0000
1982-09-16 21:00:00 UTC,2445229.375000,28.7317,-95.2428,0201,7.78,7.78,11.0000,45.0000
1982-09-16 21:30:00 UTC,2445229.395833,28.7317,-95.2428,0201,7.37,5.16,9.0000,55.0000
1982-09-16 22:00:00 UTC,2445229.416667,28.7317,-95.2428,0201,6.12,3.39,7.0000,61.0000
1982-09-16 22:30:00 UTC,2445229.437500,28.7317,-95.2428,0201,5.30,2.82,6.0000,62.0000
1982-09-16 23:00:00 UTC,2445229.458333,28.7317,-95.2428,0201,3.72,3.35,5.0000,48.0000
1982-09-16 23:30:00 UTC,2445229.479167,28.7317,-95.2428,0201,2.11,4.53,5.0000,25.0000
1982-09-17 00:00:00 UTC,2445229.500000,28.7317,-95.2428,0201,1.35,5.85,6.0000,13.0000
1982-09-17 00:30:00 UTC,2445229.520833,28.7317,-95.2428,0201,1.22,6.89,7.0000,10.0000
1982-09-17 01:00:00 UTC,2445229.541667,28.7317,-95.2428,0201,1.72,8.83,9.0000,11.0000
1982-09-17 01:30:00 UTC,2445229.562500,28.7317,-95.2428,0201,2.42,9.70,10.0000,14.0000
1982-09-17 02:00:00 UTC,2445229.583333,28.7317,-95.2428,0201,2.42,9.70,10.0000,14.0000
1982-09-17 02:30:00 UTC,2445229.604167,28.7317,-95.2428,0201,3.03,10.57,11.0000,16.0000
1982-09-17 03:00:00 UTC,2445229.625000,28.7317,-95.2428,0201,3.71,11.41,12.0000,18.0000
1982-09-17 03:30:00 UTC,2445229.645833,28.7317,-95.2428,0201,4.10,11.28,12.0000,20.0000
1982-09-17 04:00:00 UTC,2445229.666667,28.7317,-95.2428,0201,4.02,12.36,13.0000,18.0000
1982-09-17 04:30:00 UTC,2445229.687500,28.7317,-95.2428,0201,2.70,12.72,13.0000,12.0000
1982-09-17 05:00:00 UTC,2445229.708333,28.7317,-95.2428,0201,1.81,12.87,13.0000,8.0000
1982-09-17 05:30:00 UTC,2445229.729167,28.7317,-95.2428,0201,2.49,11.74,12.0000,12.0000
1982-09-17 06:00:00 UTC,2445229.750000,28.7317,-95.2428,0201,4.23,12.29,13.0000,19.0000
1982-09-17 06:30:00 UTC,2445229.770833,28.7317,-95.2428,0201,4.13,14.42,15.0000,16.0000
1982-09-17 07:00:00 UTC,2445229.791667,28.7317,-95.2428,0201,4.11,16.50,17.0000,14.0000
1982-09-17 07:30:00 UTC,2445229.812500,28.7317,-95.2428,0201,3.87,15.52,16.0000,14.0000
1982-09-17 08:00:00 UTC,2445229.833333,28.7317,-95.2428,0201,3.15,13.64,14.0000,13.0000
1982-09-17 08:30:00 UTC,2445229.854167,28.7317,-95.2428,0201,3.31,11.54,12.0000,16.0000
1982-09-17 09:00:00 UTC,2445229.875000,28.7317,-95.2428,0201,4.99,9.80,11.0000,27.0000
1982-09-17 09:30:00 UTC,2445229.895833,28.7317,-95.2428,0201,6.92,8.55,11.0000,39.0000
1982-09-17 10:00:00 UTC,2445229.916667,28.7317,-95.2428,0201,7.55,6.56,10.0000,49.0000
1982-09-17 10:30:00 UTC,2445229.937500,28.7317,-95.2428,0201,5.87,3.81,7.0000,57.0000
1982-09-17 11:00:00 UTC,2445229.958333,28.7317,-95.2428,0201,3.56,1.82,4.0000,63.0000
1982-09-17 11:30:00 UTC,2445229.979167,28.7317,-95.2428,0201,1.89,0.65,2.0000,71.0000
1982-09-17 12:00:00 UTC,2445230.000000,28.7317,-95.2428,0201,1.00,0.03,1.0000,88.0000
1982-09-17 12:30:00 UTC,2445230.020833,28.7317,-95.2428,0201,0.97,-0.26,1.0000,105.0000
1982-09-17 13:00:00 UTC,2445230.041667,28.7317,-95.2428,0201,0.00,-0.00,0.0000,120.0000
1982-09-17 13:30:00 UTC,2445230.062500,28.7317,-95.2428,0201,-0.00,-0.00,0.0000,197.0000
1982-09-17 14:00:00 UTC,2445230.083333,28.7317,-95.2428,0201,0.00,0.00,0.0000,49.0000
1982-09-17 14:30:00 UTC,2445230.104167,28.7317,-95.2428,0201,0.47,0.88,1.0000,28.0000
1982-09-17 15:00:00 UTC,2445230.125000,28.7317,-95.2428,0201,1.08,2.80,3.0000,21.0000
1982-09-17 15:30:00 UTC,2445230.145833,28.7317,-95.2428,0201,1.63,4.73,5.0000,19.0000
1982-09-17 16:00:00 UTC,2445230.166667,28.7317,-95.2428,0201,2.05,5.64,6.0000,20.0000
1982-09-17 16:30:00 UTC,2445230.187500,28.7317,-95.2428,0201,3.25,7.31,8.0000,24.0000
1982-09-17 17:00:00 UTC,2445230.208333,28.7317,-95.2428,0201,4.12,6.86,8.0000,31.0000
1982-09-17 17:30:00 UTC,2445230.229167,28.7317,-95.2428,0201,5.54,7.09,9.0000,38.0000
1982-09-17 18:00:00 UTC,2445230.250000,28.7317,-95.2428,0201,6.02,6.69,9.0000,42.0000
1982-09-17 18:30:00 UTC,2445230.270833,28.7317,-95.2428,0201,7.19,6.95,10.0000,46.0000
1982-09-17 19:00:00 UTC,2445230.291667,28.7317,-95.2428,0201,7.66,6.43,10.0000,50.0000
1982-09-17 19:30:00 UTC,2445230.312500,28.7317,-95.2428,0201,8.90,6.47,11.0000,54.0000
1982-09-17 20:00:00 UTC,2445230.333333,28.7317,-95.2428,0201,8.48,5.30,10.0000,58.0000
1982-09-17 20:30:00 UTC,2445230.354167,28.7317,-95.2428,0201,8.83,4.69,10.0000,62.0000
1982-09-17 21:00:00 UTC,2445230.375000,28.7317,-95.2428,0201,8.28,3.52,9.0000,67.0000
1982-09-17 21:30:00 UTC,2445230.395833,28.7317,-95.2428,0201,6.69,2.05,7.0000,73.0000
1982-09-17 22:00:00 UTC,2445230.416667,28.7317,-95.2428,0201,4.83,1.29,5.0000,75.0000
1982-09-17 22:30:00 UTC,2445230.437500,28.7317,-95.2428,0201,2.87,0.88,3.0000,73.0000
1982-09-17 23:00:00 UTC,2445230.458333,28.7317,-95.2428,0201,1.94,0.48,2.0000,76.0000
1982-09-17 23:30:00 UTC,2445230.479167,28.7317,-95.2428,0201,0.99,0.12,1.0000,83.0000
1982-09-18 00:00:00 UTC,2445230.500000,28.7317,-95.2428,0201,0.00,0.00,0.0000,82.0000
1982-09-18 00:30:00 UTC,2445230.520833,28.7317,-95.2428,0201,-0.00,-0.00,0.0000,263.0000
1982-09-18 01:00:00 UTC,2445230.541667,28.7317,-95.2428,0201,-0.00,-0.00,0.0000,268.0000
1982-09-18 01:30:00 UTC,2445230.562500,28.7317,-95.2428,0201,-0.00,0.00,0.0000,294.0000
1982-09-18 02:00:00 UTC,2445230.583333,28.7317,-95.2428,0201,-0.00,0.00,0.0000,343.0000
1982-09-18 02:30:00 UTC,2445230.604167,28.7317,-95.2428,0201,-0.03,2.00,2.0000,359.0000
1982-09-18 03:00:00 UTC,2445230.625000,28.7317,-95.2428,0201,0.47,2.96,3.0000,9.0000
1982-09-18 03:30:00 UTC,2445230.645833,28.7317,-95.2428,0201,1.21,4.85,5.0000,14.0000
1982-09-18 04:00:00 UTC,2445230.666667,28.7317,-95.2428,0201,1.55,5.80,6.0000,15.0000
1982-09-18 04:30:00 UTC,2445230.687500,28.7317,-95.2428,0201,1.69,6.79,7.0000,14.0000
1982-09-18 05:00:00 UTC,2445230.708333,28.7317,-95.2428,0201,1.66,7.83,8.0000,12.0000
1982-09-18 05:30:00 UTC,2445230.729167,28.7317,-95.2428,0201,1.41,8.89,9.0000,9.0000
1982-09-18 06:00:00 UTC,2445230.750000,28.7317,-95.2428,0201,1.72,10.86,11.0000,9.0000
1982-09-18 06:30:00 UTC,2445230.770833,28.7317,-95.2428,0201,1.88,11.85,12.0000,9.0000
1982-09-18 07:00:00 UTC,2445230.791667,28.7317,-95.2428,0201,2.48,12.76,13.0000,11.0000
1982-09-18 07:30:00 UTC,2445230.812500,28.7317,-95.2428,0201,3.36,12.56,13.0000,15.0000
1982-09-18 08:00:00 UTC,2445230.833333,28.7317,-95.2428,0201,2.70,11.69,12.0000,13.0000
1982-09-18 08:30:00 UTC,2445230.854167,28.7317,-95.2428,0201,1.15,10.94,11.0000,6.0000
1982-09-18 09:00:00 UTC,2445230.875000,28.7317,-95.2428,0201,-0.19,11.00,11.0000,359.0000
1982-09-18 09:30:00 UTC,2445230.895833,28.7317,-95.2428,0201,-1.91,10.83,11.0000,350.0000
1982-09-18 10:00:00 UTC,2445230.916667,28.7317,-95.2428,0201,-1.91,9.82,10.0000,349.0000
1982-09-18 10:30:00 UTC,2445230.937500,28.7317,-95.2428,0201,0.16,9.00,9.0000,1.0000
1982-09-18 11:00:00 UTC,2445230.958333,28.7317,-95.2428,0201,2.18,8.73,9.0000,14.0000
1982-09-18 11:30:00 UTC,2445230.979167,28.7317,-95.2428,0201,2.33,8.69,9.0000,15.0000
1982-09-18 12:00:00 UTC,2445231.000000,28.7317,-95.2428,0201,2.21,7.69,8.0000,16.0000
1982-09-18 12:30:00 UTC,2445231.020833,28.7317,-95.2428,0201,2.91,5.25,6.0000,29.0000
1982-09-18 13:00:00 UTC,2445231.041667,28.7317,-95.2428,0201,4.39,4.09,6.0000,47.0000
1982-09-18 13:30:00 UTC,2445231.062500,28.7317,-95.2428,0201,4.24,2.65,5.0000,58.0000
1982-09-18 14:00:00 UTC,2445231.083333,28.7317,-95.2428,0201,4.41,2.35,5.0000,62.0000
1982-09-18 14:30:00 UTC,2445231.104167,28.7317,-95.2428,0201,4.33,2.50,5.0000,60.0000
1982-09-18 15:00:00 UTC,2445231.125000,28.7317,-95.2428,0201,5.20,3.00,6.0000,60.0000
1982-09-18 15:30:00 UTC,2445231.145833,28.7317,-95.2428,0201,6.00,3.61,7.0000,59.0000
1982-09-18 16:00:00 UTC,2445231.166667,28.7317,-95.2428,0201,5.87,3.81,7.0000,57.0000
1982-09-18 16:30:00 UTC,2445231.187500,28.7317,-95.2428,0201,5.59,4.21,7.0000,53.0000
1982-09-18 17:00:00 UTC,2445231.208333,28.7317,-95.2428,0201,4.60,3.86,6.0000,50.0000
1982-09-18 17:30:00 UTC,2445231.229167,28.7317,-95.2428,0201,4.53,3.94,6.0000,49.0000
1982-09-18 18:00:00 UTC,2445231.250000,28.7317,-95.2428,0201,5.36,4.50,7.0000,50.0000
1982-09-18 18:30:00 UTC,2445231.270833,28.7317,-95.2428,0201,4.46,4.01,6.0000,48.0000
1982-09-18 19:00:00 UTC,2445231.291667,28.7317,-95.2428,0201,3.94,4.53,6.0000,41.0000
1982-09-18 19:30:00 UTC,2445231.312500,28.7317,-95.2428,0201,2.87,4.10,5.0000,35.0000
1982-09-18 20:00:00 UTC,2445231.333333,28.7317,-95.2428,0201,2.00,3.46,4.0000,30.0000
1982-09-18 20:30:00 UTC,2445231.354167,28.7317,-95.2428,0201,1.43,3.73,4.0000,21.0000
1982-09-18 21:00:00 UTC,2445231.375000,28.7317,-95.2428,0201,0.26,2.99,3.0000,5.0000
1982-09-18 21:30:00 UTC,2445231.395833,28.7317,-95.2428,0201,-0.52,2.95,3.0000,350.0000
1982-09-18 22:00:00 UTC,2445231.416667,28.7317,-95.2428,0201,-0.75,1.85,2.0000,338.0000
1982-09-18 22:30:00 UTC,2445231.437500,28.7317,-95.2428,0201,-0.63,0.78,1.0000,321.0000
1982-09-18 23:00:00 UTC,2445231.458333,28.7317,-95.2428,0201,-0.98,-0.19,1.0000,259.0000
1982-09-18 23:30:00 UTC,2445231.479167,28.7317,-95.2428,0201,-1.97,-0.35,2.0000,260.0000
1982-09-19 00:00:00 UTC,2445231.500000,28.7317,-95.2428,0201,-3.99,-0.21,4.0000,267.0000
1982-09-19 00:30:00 UTC,2445231.520833,28.7317,-95.2428,0201,-4.97,-0.52,5.0000,264.0000
1982-09-19 01:00:00 UTC,2445231.541667,28.7317,-95.2428,0201,-3.90,-0.90,4.0000,257.0000
1982-09-19 01:30:00 UTC,2445231.562500,28.7317,-95.2428,0201,-3.91,-0.83,4.0000,258.0000
1982-09-19 02:00:00 UTC,2445231.583333,28.7317,-95.2428,0201,-3.00,0.10,3.0000,272.0000
1982-09-19 02:30:00 UTC,2445231.604167,28.7317,-95.2428,0201,-3.80,1.24,4.0000,288.0000
1982-09-19 03:00:00 UTC,2445231.625000,28.7317,-95.2428,0201,-3.65,1.63,4.0000,294.0000
1982-09-19 03:30:00 UTC,2445231.645833,28.7317,-95.2428,0201,-3.56,1.82,4.0000,297.0000
1982-09-19 04:00:00 UTC,2445231.666667,28.7317,-95.2428,0201,-4.97,3.36,6.0000,304.0000
1982-09-19 04:30:00 UTC,2445231.687500,28.7317,-95.2428,0201,-6.99,5.66,9.0000,309.0000
1982-09-19 05:00:00 UTC,2445231.708333,28.7317,-95.2428,0201,-9.19,9.19,13.0000,315.0000
1982-09-19 05:30:00 UTC,2445231.729167,28.7317,-95.2428,0201,-10.50,12.08,16.0000,319.0000
1982-09-19 06:00:00 UTC,2445231.750000,28.7317,-95.2428,0201,-10.83,14.38,18.0000,323.0000
1982-09-19 06:30:00 UTC,2445231.770833,28.7317,-95.2428,0201,-10.30,17.14,20.0000,329.0000
1982-09-19 07:00:00 UTC,2445231.791667,28.7317,-95.2428,0201,-9.72,20.85,23.0000,335.0000
1982-09-19 07:30:00 UTC,2445231.812500,28.7317,-95.2428,0201,-9.38,22.09,24.0000,337.0000
1982-09-19 08:00:00 UTC,2445231.833333,28.7317,-95.2428,0201,-8.99,22.25,24.0000,338.0000
1982-09-19 08:30:00 UTC,2445231.854167,28.7317,-95.2428,0201,-7.53,19.61,21.0000,339.0000
1982-09-19 09:00:00 UTC,2445231.875000,28.7317,-95.2428,0201,-6.16,16.91,18.0000,340.0000
1982-09-19 09:30:00 UTC,2445231.895833,28.7317,-95.2428,0201,-5.81,15.97,17.0000,340.0000
1982-09-19 10:00:00 UTC,2445231.916667,28.7317,-95.2428,0201,-4.88,14.18,15.0000,341.0000
1982-09-19 10:30:00 UTC,2445231.937500,28.7317,-95.2428,0201,-3.40,10.46,11.0000,342.0000
1982-09-19 11:00:00 UTC,2445231.958333,28.7317,-95.2428,0201,-1.72,8.83,9.0000,349.0000
1982-09-19 11:30:00 UTC,2445231.979167,28.7317,-95.2428,0201,0.16,9.00,9.0000,1.0000
1982-09-19 12:00:00 UTC,2445232.000000,28.7317,-95.2428,0201,1.10,8.93,9.0000,7.0000
1982-09-19 12:30:00 UTC,2445232.020833,28.7317,-95.2428,0201,2.48,8.65,9.0000,16.0000
1982-09-19 13:00:00 UTC,2445232.041667,28.7317,-95.2428,0201,5.29,7.28,9.0000,36.0000
1982-09-19 13:30:00 UTC,2445232.062500,28.7317,-95.2428,0201,7.31,6.82,10.0000,47.0000
1982-09-19 14:00:00 UTC,2445232.083333,28.7317,-95.2428,0201,7.77,6.29,10.0000,51.0000
1982-09-19 14:30:00 UTC,2445232.104167,28.7317,-95.2428,0201,7.55,4.90,9.0000,57.0000
1982-09-19 15:00:00 UTC,2445232.125000,28.7317,-95.2428,0201,7.95,4.23,9.0000,62.0000
1982-09-19 15:30:00 UTC,2445232.145833,28.7317,-95.2428,0201,10.05,4.47,11.0000,66.0000
1982-09-19 16:00:00 UTC,2445232.166667,28.7317,-95.2428,0201,12.14,4.66,13.0000,69.0000
1982-09-19 16:30:00 UTC,2445232.187500,28.7317,-95.2428,0201,13.24,4.56,14.0000,71.0000
1982-09-19 17:00:00 UTC,2445232.208333,28.7317,-95.2428,0201,14.34,4.39,15.0000,73.0000
1982-09-19 17:30:00 UTC,2445232.229167,28.7317,-95.2428,0201,15.38,4.41,16.0000,74.0000
1982-09-19 18:00:00 UTC,2445232.250000,28.7317,-95.2428,0201,16.80,6.45,18.0000,69.0000
1982-09-19 18:30:00 UTC,2445232.270833,28.7317,-95.2428,0201,18.87,9.21,21.0000,64.0000
1982-09-19 19:00:00 UTC,2445232.291667,28.7317,-95.2428,0201,19.18,8.54,21.0000,66.0000
1982-09-19 19:30:00 UTC,2445232.312500,28.7317,-95.2428,0201,19.73,7.18,21.0000,70.0000
1982-09-19 20:00:00 UTC,2445232.333333,28.7317,-95.2428,0201,19.02,6.18,20.0000,72.0000
1982-09-19 20:30:00 UTC,2445232.354167,28.7317,-95.2428,0201,18.35,4.92,19.0000,75.0000
1982-09-19 21:00:00 UTC,2445232.375000,28.7317,-95.2428,0201,17.73,3.13,18.0000,80.0000
1982-09-19 21:30:00 UTC,2445232.395833,28.7317,-95.2428,0201,16.96,1.19,17.0000,86.0000
1982-09-19 22:00:00 UTC,2445232.416667,28.7317,-95.2428,0201,16.96,-1.19,17.0000,94.0000
1982-09-19 22:30:00 UTC,2445232.437500,28.7317,-95.2428,0201,17.54,-4.05,18.0000,103.0000
1982-09-19 23:00:00 UTC,2445232.458333,28.7317,-95.2428,0201,15.65,-6.64,17.0000,113.0000
1982-09-19 23:30:00 UTC,2445232.479167,28.7317,-95.2428,0201,11.74,-7.62,14.0000,123.0000
1982-09-20 00:00:00 UTC,2445232.500000,28.7317,-95.2428,0201,8.49,-8.49,12.0000,135.0000
1982-09-20 00:30:00 UTC,2445232.520833,28.7317,-95.2428,0201,5.67,-9.43,11.0000,149.0000
1982-09-20 01:00:00 UTC,2445232.541667,28.7317,-95.2428,0201,2.92,-9.56,10.0000,163.0000
1982-09-20 01:30:00 UTC,2445232.562500,28.7317,-95.2428,0201,1.56,-9.88,10.0000,171.0000
1982-09-20 02:00:00 UTC,2445232.583333,28.7317,-95.2428,0201,0.52,-9.99,10.0000,177.0000
1982-09-20 02:30:00 UTC,2445232.604167,28.7317,-95.2428,0201,-0.78,-8.97,9.0000,185.0000
1982-09-20 03:00:00 UTC,2445232.625000,28.7317,-95.2428,0201,-2.07,-7.73,8.0000,195.0000
1982-09-20 03:30:00 UTC,2445232.645833,28.7317,-95.2428,0201,-3.91,-5.80,7.0000,214.0000
1982-09-20 04:00:00 UTC,2445232.666667,28.7317,-95.2428,0201,-4.79,-3.61,6.0000,233.0000
1982-09-20 04:30:00 UTC,2445232.687500,28.7317,-95.2428,0201,-5.30,-2.82,6.0000,242.0000
1982-09-20 05:00:00 UTC,2445232.708333,28.7317,-95.2428,0201,-5.64,-2.05,6.0000,250.0000
1982-09-20 05:30:00 UTC,2445232.729167,28.7317,-95.2428,0201,-5.85,-1.35,6.0000,257.0000
1982-09-20 06:00:00 UTC,2445232.750000,28.7317,-95.2428,0201,-5.00,0.09,5.0000,271.0000
1982-09-20 06:30:00 UTC,2445232.770833,28.7317,-95.2428,0201,-4.53,2.11,5.0000,295.0000
1982-09-20 07:00:00 UTC,2445232.791667,28.7317,-95.2428,0201,-3.35,3.72,5.0000,318.0000
1982-09-20 07:30:00 UTC,2445232.812500,28.7317,-95.2428,0201,-3.07,6.29,7.0000,334.0000
1982-09-20 08:00:00 UTC,2445232.833333,28.7317,-95.2428,0201,-3.40,10.46,11.0000,342.0000
1982-09-20 08:30:00 UTC,2445232.854167,28.7317,-95.2428,0201,-3.15,13.64,14.0000,347.0000
1982-09-20 09:00:00 UTC,2445232.875000,28.7317,-95.2428,0201,-2.07,16.87,17.0000,353.0000
1982-09-20 09:30:00 UTC,2445232.895833,28.7317,-95.2428,0201,-1.19,16.96,17.0000,356.0000
1982-09-20 10:00:00 UTC,2445232.916667,28.7317,-95.2428,0201,0.30,17.00,17.0000,1.0000
1982-09-20 10:30:00 UTC,2445232.937500,28.7317,-95.2428,0201,3.30,18.71,19.0000,10.0000
1982-09-20 11:00:00 UTC,2445232.958333,28.7317,-95.2428,0201,7.42,17.49,19.0000,23.0000
1982-09-20 11:30:00 UTC,2445232.979167,28.7317,-95.2428,0201,12.71,14.12,19.0000,42.0000
1982-09-20 12:00:00 UTC,2445233.000000,28.7317,-95.2428,0201,17.32,10.00,20.0000,60.0000
1982-09-20 12:30:00 UTC,2445233.020833,28.7317,-95.2428,0201,20.85,9.72,23.0000,65.0000
1982-09-20 13:00:00 UTC,2445233.041667,28.7317,-95.2428,0201,22.07,11.74,25.0000,62.0000
1982-09-20 13:30:00 UTC,2445233.062500,28.7317,-95.2428,0201,22.41,8.60,24.0000,69.0000
1982-09-20 14:00:00 UTC,2445233.083333,28.7317,-95.2428,0201,20.99,0.73,21.0000,88.0000
1982-09-20 14:30:00 UTC,2445233.104167,28.7317,-95.2428,0201,19.23,-5.51,20.0000,106.0000
1982-09-20 15:00:00 UTC,2445233.125000,28.7317,-95.2428,0201,17.22,-8.03,19.0000,115.0000
1982-09-20 15:30:00 UTC,2445233.145833,28.7317,-95.2428,0201,15.89,-8.45,18.0000,118.0000
1982-09-20 16:00:00 UTC,2445233.166667,28.7317,-95.2428,0201,16.45,-9.50,19.0000,120.0000
1982-09-20 16:30:00 UTC,2445233.187500,28.7317,-95.2428,0201,16.58,-11.18,20.0000,124.0000
1982-09-20 17:00:00 UTC,2445233.208333,28.7317,-95.2428,0201,16.38,-11.47,20.0000,125.0000
1982-09-20 17:30:00 UTC,2445233.229167,28.7317,-95.2428,0201,16.78,-8.92,19.0000,118.0000
1982-09-20 18:00:00 UTC,2445233.250000,28.7317,-95.2428,0201,17.85,-6.50,19.0000,110.0000
1982-09-20 18:30:00 UTC,2445233.270833,28.7317,-95.2428,0201,17.47,-4.35,18.0000,104.0000
1982-09-20 19:00:00 UTC,2445233.291667,28.7317,-95.2428,0201,18.86,-2.32,19.0000,97.0000
1982-09-20 19:30:00 UTC,2445233.312500,28.7317,-95.2428,0201,19.97,-1.05,20.0000,93.0000
1982-09-20 20:00:00 UTC,2445233.333333,28.7317,-95.2428,0201,20.00,-0.35,20.0000,91.0000
1982-09-20 20:30:00 UTC,2445233.354167,28.7317,-95.2428,0201,18.00,0.00,18.0000,90.0000
1982-09-20 21:00:00 UTC,2445233.375000,28.7317,-95.2428,0201,17.98,-0.94,18.0000,93.0000
1982-09-20 21:30:00 UTC,2445233.395833,28.7317,-95.2428,0201,17.78,-2.82,18.0000,99.0000
1982-09-20 22:00:00 UTC,2445233.416667,28.7317,-95.2428,0201,17.39,-4.66,18.0000,105.0000
1982-09-20 22:30:00 UTC,2445233.437500,28.7317,-95.2428,0201,18.17,-5.56,19.0000,107.0000
1982-09-20 23:00:00 UTC,2445233.458333,28.7317,-95.2428,0201,19.32,-5.18,20.0000,105.0000
1982-09-20 23:30:00 UTC,2445233.479167,28.7317,-95.2428,0201,19.56,-4.16,20.0000,102.0000
1982-09-21 00:00:00 UTC,2445233.500000,28.7317,-95.2428,0201,16.50,-4.11,17.0000,104.0000
1982-09-21 00:30:00 UTC,2445233.520833,28.7317,-95.2428,0201,13.31,-4.33,14.0000,108.0000
1982-09-21 01:00:00 UTC,2445233.541667,28.7317,-95.2428,0201,11.28,-4.10,12.0000,110.0000
1982-09-21 01:30:00 UTC,2445233.562500,28.7317,-95.2428,0201,9.46,-3.26,10.0000,109.0000
1982-09-21 02:00:00 UTC,2445233.583333,28.7317,-95.2428,0201,7.76,-1.94,8.0000,104.0000
1982-09-21 02:30:00 UTC,2445233.604167,28.7317,-95.2428,0201,6.95,-0.85,7.0000,97.0000
1982-09-21 03:00:00 UTC,2445233.625000,28.7317,-95.2428,0201,6.93,-0.97,7.0000,98.0000
1982-09-21 03:30:00 UTC,2445233.645833,28.7317,-95.2428,0201,5.87,-1.25,6.0000,102.0000
1982-09-21 04:00:00 UTC,2445233.666667,28.7317,-95.2428,0201,6.89,-1.22,7.0000,100.0000
1982-09-21 04:30:00 UTC,2445233.687500,28.7317,-95.2428,0201,8.89,-1.41,9.0000,99.0000
1982-09-21 05:00:00 UTC,2445233.708333,28.7317,-95.2428,0201,10.76,-2.29,11.0000,102.0000
1982-09-21 05:30:00 UTC,2445233.729167,28.7317,-95.2428,0201,10.63,-2.85,11.0000,105.0000
1982-09-21 06:00:00 UTC,2445233.750000,28.7317,-95.2428,0201,10.20,-4.12,11.0000,112.0000
1982-09-21 06:30:00 UTC,2445233.770833,28.7317,-95.2428,0201,10.06,-6.54,12.0000,123.0000
1982-09-21 07:00:00 UTC,2445233.791667,28.7317,-95.2428,0201,9.51,-8.87,13.0000,133.0000
1982-09-21 07:30:00 UTC,2445233.812500,28.7317,-95.2428,0201,9.55,-10.24,14.0000,137.0000
1982-09-21 08:00:00 UTC,2445233.833333,28.7317,-95.2428,0201,10.04,-11.15,15.0000,138.0000
1982-09-21 08:30:00 UTC,2445233.854167,28.7317,-95.2428,0201,10.28,-12.26,16.0000,140.0000
1982-09-21 09:00:00 UTC,2445233.875000,28.7317,-95.2428,0201,10.23,-13.58,17.0000,143.0000